User: anonymous   Login
Location: Daybis Observatory
(33.4273°N, 88.8061°W)
Time: 03:48:50
(UTC-05:00)
Language:

Coronas F rocket - Orbit

View from above orbital plane
View from above orbital plane
View from above satellite
View from above satellite

Ground track
Ground track

The orbit data is extracted from the following two-line orbital elements,

1 26874U 01032B   15114.48103132  .00028827  00000-0  31264-3 0  9993
2 26874 082.4688 014.8548 0011340 355.5829 004.5327 15.63282479769731
Epoch (UTC): 24 April 2015 11:32:41
Eccentricity: 0.0011340
inclination: 82.4688°
perigee height: 370 km
apogee height: 386 km
right ascension of ascending node: 14.8548°
argument of perigee: 355.5829°
revolutions per day: 15.63282479
mean anomaly at epoch: 4.5327°
orbit number at epoch: 76973

The dashed part of the orbit path shows where the satellite is in the earth's shadow,  

DLR